Simultaneous Nadir Overpasses (SNOs) Predictions

Prediction of SNOs between AQUA and TERRA Satellite Orbit:

Table of predicted SNOs for the next 14.0 days since TLE Epoch: 5/18/2024
Index Date (AQUA) Time (AQUA) Lat,Lon (AQUA) SZA (AQUA ) Date (TERRA) Time (TERRA) Lat,Lon (TERRA) SZA (TERRA ) Distance(km) Time Diff (sec)
1 05/24/2024 02:31:06 75.81, 139.27 54.90 05/24/2024 02:32:10 75.77, 142.76 54.86 95.46 64
2 05/24/2024 04:09:49 75.75, 114.75 54.83 05/24/2024 04:10:53 75.74, 117.98 54.81 88.48 64
3 05/24/2024 04:59:11 -75.80, -77.72 125.14 05/24/2024 05:00:15 -75.76, -74.30 125.18 93.56 64
4 05/24/2024 05:48:32 75.70, 90.23 54.76 05/24/2024 05:49:37 75.65, 93.06 54.71 77.95 65
5 05/24/2024 06:37:54 -75.74,-102.24 125.20 05/24/2024 06:38:59 -75.67, -99.22 125.28 83.19 65
6 05/24/2024 07:27:14 75.59, 65.86 54.64 05/24/2024 07:28:21 75.56, 68.14 54.61 63.26 67
7 05/24/2024 08:16:36 -75.64,-126.61 125.32 05/24/2024 08:17:42 -75.64,-124.00 125.33 72.08 66
8 05/24/2024 09:05:57 75.54, 41.34 54.57 05/24/2024 09:07:05 75.48, 43.22 54.51 52.94 68
9 05/24/2024 09:55:19 -75.58,-151.13 125.39 05/24/2024 09:56:26 -75.55,-148.91 125.43 61.56 67
10 05/24/2024 10:44:40 75.49, 16.81 54.50 05/24/2024 10:45:48 75.44, 18.44 54.46 45.84 68
11 05/24/2024 11:34:02 -75.53,-175.65 125.46 05/24/2024 11:35:10 -75.47,-173.83 125.53 51.32 68
12 05/24/2024 12:23:23 75.43, -7.71 54.44 05/24/2024 12:24:32 75.35, -6.47 54.36 35.91 69
13 05/24/2024 13:12:44 -75.43, 159.96 125.58 05/24/2024 13:13:54 -75.38, 161.26 125.63 36.67 70
14 05/24/2024 14:02:05 75.33, -32.10 54.32 05/24/2024 14:03:15 75.32, -31.24 54.31 24.10 70
15 05/24/2024 14:51:27 -75.37, 135.44 125.65 05/24/2024 14:52:37 -75.34, 136.48 125.68 29.62 70
16 05/24/2024 15:40:48 75.27, -56.63 54.25 05/24/2024 15:41:59 75.23, -56.15 54.21 14.15 71
17 05/24/2024 16:30:10 -75.32, 110.91 125.71 05/24/2024 16:31:21 -75.26, 111.58 125.78 19.96 71
18 05/24/2024 17:19:31 75.22, -81.16 54.18 05/24/2024 17:20:42 75.19, -80.93 54.16 6.98 71
19 05/24/2024 18:08:53 -75.26, 86.38 125.78 05/24/2024 18:10:04 -75.22, 86.80 125.82 12.83 71
20 05/24/2024 18:58:14 75.16,-105.69 54.11 05/24/2024 18:59:25 75.16,-105.70 54.11 0.67 71
21 05/24/2024 19:47:35 -75.16, 61.98 125.90 05/24/2024 19:48:47 -75.18, 62.03 125.87 3.29 72
22 05/24/2024 20:36:58 75.16,-130.36 54.10 05/24/2024 20:38:07 75.17,-130.34 54.11 1.57 69
23 05/24/2024 21:26:19 -75.15, 37.31 125.92 05/24/2024 21:27:30 -75.15, 37.26 125.92 1.76 71
24 05/24/2024 22:15:42 75.15,-155.03 54.08 05/24/2024 22:16:50 75.13,-155.12 54.06 3.30 68
25 05/24/2024 23:05:03 -75.15, 12.64 125.93 05/24/2024 23:06:12 -75.16, 12.61 125.92 1.78 69
26 05/24/2024 23:54:26 75.15,-179.70 54.06 05/24/2024 23:55:32 75.15,-179.76 54.06 1.73 66
27 05/25/2024 00:43:47 -75.14, -12.03 125.95 05/25/2024 00:44:54 -75.18, -12.03 125.92 3.60 67
28 05/25/2024 01:33:10 75.14, 155.63 54.05 05/25/2024 01:34:14 75.16, 155.60 54.06 2.16 64
29 05/25/2024 02:22:31 -75.14, -36.70 125.97 05/25/2024 02:23:37 -75.14, -36.80 125.97 2.98 66
30 05/25/2024 03:11:54 75.14, 130.96 54.03 05/25/2024 03:12:56 75.17, 130.96 54.07 3.96 62
31 05/25/2024 04:01:15 -75.13, -61.37 125.98 05/25/2024 04:02:19 -75.15, -61.44 125.97 2.95 64
32 05/25/2024 04:50:38 75.13, 106.29 54.01 05/25/2024 04:51:39 75.14, 106.18 54.02 3.06 61
33 05/25/2024 05:40:00 -75.18, -86.17 125.95 05/25/2024 05:41:01 -75.17, -86.08 125.96 2.99 61
34 05/25/2024 06:29:21 75.13, 81.62 54.00 05/25/2024 06:30:20 75.15, 81.54 54.02 3.16 59
35 05/25/2024 07:18:43 -75.18,-110.84 125.97 05/25/2024 07:19:42 -75.18,-110.72 125.96 3.45 59
36 05/25/2024 08:08:06 75.18, 56.81 54.03 05/25/2024 08:09:02 75.16, 56.90 54.02 2.88 56
37 05/25/2024 08:57:27 -75.17,-135.51 125.98 05/25/2024 08:58:25 -75.14,-135.50 126.01 3.23 58
38 05/25/2024 09:46:50 75.17, 32.14 54.02 05/25/2024 09:47:44 75.18, 32.26 54.02 3.42 54
39 05/25/2024 10:36:11 -75.17,-160.19 126.00 05/25/2024 10:37:07 -75.16,-160.14 126.01 1.83 56
40 05/25/2024 11:25:34 75.17, 7.47 54.00 05/25/2024 11:26:27 75.14, 7.48 53.97 3.19 53
41 05/25/2024 12:14:55 -75.16, 175.14 126.01 05/25/2024 12:15:49 -75.17, 175.22 126.01 2.31 54
42 05/25/2024 13:04:18 75.16, -17.20 53.98 05/25/2024 13:05:09 75.15, -17.16 53.97 1.79 51
43 05/25/2024 13:53:39 -75.16, 150.47 126.03 05/25/2024 13:54:32 -75.13, 150.45 126.06 3.09 53
44 05/25/2024 14:43:02 75.16, -41.88 53.97 05/25/2024 14:43:51 75.17, -41.80 53.97 2.23 49
45 05/25/2024 15:32:23 -75.16, 125.80 126.05 05/25/2024 15:33:14 -75.15, 125.80 126.06 1.10 51
46 05/25/2024 16:21:46 75.16, -66.55 53.95 05/25/2024 16:22:34 75.13, -66.58 53.92 3.24 48
47 05/25/2024 17:11:07 -75.15, 101.13 126.06 05/25/2024 17:11:56 -75.16, 101.16 126.06 1.29 49
48 05/25/2024 18:00:30 75.15, -91.22 53.94 05/25/2024 18:01:16 75.14, -91.22 53.92 1.28 46
49 05/25/2024 18:49:51 -75.15, 76.45 126.08 05/25/2024 18:50:38 -75.17, 76.52 126.05 3.27 47
50 05/25/2024 19:39:14 75.15,-115.89 53.92 05/25/2024 19:39:58 75.16,-115.86 53.93 1.09 44
51 05/25/2024 20:28:35 -75.15, 51.78 126.09 05/25/2024 20:29:21 -75.14, 51.75 126.10 1.49 46
52 05/25/2024 21:17:58 75.15,-140.57 53.91 05/25/2024 21:18:40 75.17,-140.50 53.93 2.99 42
53 05/25/2024 22:07:19 -75.14, 27.11 126.11 05/25/2024 22:08:03 -75.15, 27.10 126.10 0.76 44
54 05/25/2024 22:56:42 75.14,-165.24 53.89 05/25/2024 22:57:23 75.13,-165.28 53.88 1.83 41
55 05/25/2024 23:46:03 -75.14, 2.43 126.12 05/25/2024 23:46:45 -75.16, 2.46 126.10 2.68 42
56 05/26/2024 00:35:26 75.14, 170.09 53.88 05/26/2024 00:36:05 75.14, 170.08 53.88 0.41 39
57 05/26/2024 01:24:47 -75.14, -22.24 126.14 05/26/2024 01:25:28 -75.12, -22.31 126.15 2.47 41
58 05/26/2024 02:14:10 75.14, 145.41 53.86 05/26/2024 02:14:47 75.16, 145.44 53.88 2.22 37
59 05/26/2024 03:03:31 -75.13, -46.91 126.15 05/26/2024 03:04:10 -75.14, -46.96 126.15 1.37 39
60 05/26/2024 03:52:54 75.13, 120.74 53.85 05/26/2024 03:53:30 75.12, 120.66 53.83 2.86 36
61 05/26/2024 04:42:15 -75.13, -71.59 126.17 05/26/2024 04:42:52 -75.15, -71.60 126.15 2.37 37
62 05/26/2024 05:31:38 75.13, 96.06 53.83 05/26/2024 05:32:12 75.13, 96.02 53.83 1.35 34
63 05/26/2024 06:20:59 -75.13, -96.26 126.18 05/26/2024 06:21:35 -75.11, -96.37 126.20 3.56 36
64 05/26/2024 07:10:22 75.13, 71.39 53.82 05/26/2024 07:10:54 75.14, 71.37 53.83 1.77 32
65 05/26/2024 07:59:43 -75.12,-120.94 126.20 05/26/2024 08:00:17 -75.13,-121.02 126.19 2.33 34
66 05/26/2024 08:49:06 75.13, 46.71 53.80 05/26/2024 08:49:36 75.16, 46.73 53.83 3.46 30
67 05/26/2024 09:38:27 -75.12,-145.61 126.21 05/26/2024 09:38:59 -75.14,-145.66 126.19 2.42 32
68 05/26/2024 10:27:50 75.12, 22.04 53.79 05/26/2024 10:28:19 75.12, 21.95 53.78 2.50 29
69 05/26/2024 11:17:11 -75.12,-170.29 126.22 05/26/2024 11:17:41 -75.15,-170.30 126.19 3.72 30
70 05/26/2024 12:06:34 75.12, -2.64 53.78 05/26/2024 12:07:01 75.13, -2.69 53.79 1.92 27
71 05/26/2024 12:55:55 -75.12, 165.04 126.24 05/26/2024 12:56:24 -75.11, 164.92 126.24 3.37 29
72 05/26/2024 13:45:18 75.12, -27.31 53.76 05/26/2024 13:45:43 75.14, -27.34 53.79 2.90 25
73 05/26/2024 14:34:39 -75.11, 140.36 126.25 05/26/2024 14:35:06 -75.13, 140.28 126.24 2.84 27
74 05/26/2024 15:24:02 75.12, -51.99 53.75 05/26/2024 15:24:26 75.11, -52.11 53.74 3.69 24
75 05/26/2024 16:13:24 -75.16, 115.55 126.22 05/26/2024 16:13:48 -75.14, 115.63 126.24 3.39 24
76 05/26/2024 17:02:46 75.11, -76.67 53.73 05/26/2024 17:03:08 75.12, -76.76 53.74 2.62 22
77 05/26/2024 17:52:08 -75.16, 90.87 126.23 05/26/2024 17:52:30 -75.15, 90.99 126.24 3.37 22
78 05/26/2024 18:41:30 75.11,-101.34 53.72 05/26/2024 18:41:50 75.13,-101.40 53.74 2.66 20
79 05/26/2024 19:30:51 -75.11, 66.33 126.29 05/26/2024 19:31:13 -75.11, 66.21 126.29 3.52 22
80 05/26/2024 20:20:15 75.16,-126.16 53.76 05/26/2024 20:20:32 75.14,-126.04 53.74 3.69 17
81 05/26/2024 21:09:36 -75.16, 41.52 126.26 05/26/2024 21:09:55 -75.13, 41.57 126.29 3.44 19
82 05/26/2024 21:58:58 75.11,-150.70 53.69 05/26/2024 21:59:15 75.11,-150.82 53.69 3.60 17
83 05/26/2024 22:48:20 -75.15, 16.84 126.27 05/26/2024 22:48:37 -75.14, 16.92 126.28 2.78 17
84 05/26/2024 23:37:42 75.11,-175.37 53.68 05/26/2024 23:37:57 75.12,-175.47 53.69 2.90 15
85 05/27/2024 00:27:04 -75.15, -7.83 126.28 05/27/2024 00:27:19 -75.15, -7.72 126.28 3.25 15
86 05/27/2024 01:16:26 75.11, 159.95 53.67 05/27/2024 01:16:39 75.13, 159.89 53.69 3.25 13
87 05/27/2024 02:05:47 -75.10, -32.38 126.35 05/27/2024 02:06:02 -75.11, -32.50 126.33 3.78 15
88 05/27/2024 02:55:11 75.15, 135.13 53.71 05/27/2024 02:55:21 75.14, 135.24 53.69 3.38 10
89 05/27/2024 03:44:32 -75.15, -57.19 126.31 05/27/2024 03:44:44 -75.13, -57.14 126.33 2.80 12
90 05/27/2024 04:33:54 75.10, 110.59 53.64 05/27/2024 04:34:04 75.10, 110.47 53.64 3.60 10
91 05/27/2024 05:23:16 -75.15, -81.87 126.32 05/27/2024 05:23:26 -75.14, -81.79 126.33 2.50 10
92 05/27/2024 06:12:38 75.10, 85.91 53.63 05/27/2024 06:12:46 75.12, 85.82 53.65 3.14 8
93 05/27/2024 07:02:00 -75.15,-106.55 126.33 05/27/2024 07:02:08 -75.15,-106.43 126.33 3.35 8
94 05/27/2024 07:51:23 75.15, 61.10 53.67 05/27/2024 07:51:28 75.13, 61.18 53.65 3.25 5
95 05/27/2024 08:40:44 -75.14,-131.22 126.35 05/27/2024 08:40:51 -75.11,-131.21 126.38 3.51 7
96 05/27/2024 09:30:07 75.15, 36.42 53.66 05/27/2024 09:30:10 75.14, 36.53 53.65 3.29 3
97 05/27/2024 10:19:27 -75.14,-155.90 126.36 05/27/2024 10:19:32 -75.13,-155.85 126.38 2.46 5
98 05/27/2024 11:08:49 75.10, 11.88 53.59 05/27/2024 11:08:52 75.10, 11.75 53.60 3.58 3
99 05/27/2024 11:58:11 -75.14, 179.42 126.37 05/27/2024 11:58:14 -75.14, 179.50 126.38 2.47 3
100 05/27/2024 12:47:33 75.10, -12.80 53.58 05/27/2024 12:47:34 75.11, -12.89 53.60 3.22 1
101 05/27/2024 13:36:55 -75.14, 154.74 126.38 05/27/2024 13:36:56 -75.15, 154.86 126.38 3.53 1
102 05/27/2024 14:26:18 75.15, -37.62 53.62 05/27/2024 14:26:16 75.13, -37.54 53.60 3.19 2
103 05/27/2024 15:15:39 -75.14, 130.06 126.40 05/27/2024 15:15:39 -75.11, 130.08 126.42 3.27 0
104 05/27/2024 16:05:02 75.14, -62.30 53.61 05/27/2024 16:04:58 75.14, -62.18 53.60 3.35 4
105 05/27/2024 16:54:23 -75.14, 105.38 126.41 05/27/2024 16:54:21 -75.12, 105.44 126.42 2.38 2
106 05/27/2024 17:43:45 75.09, -86.84 53.55 05/27/2024 17:43:41 75.10, -86.96 53.55 3.48 4
107 05/27/2024 18:33:07 -75.14, 80.70 126.42 05/27/2024 18:33:03 -75.14, 80.79 126.42 2.59 4
108 05/27/2024 19:22:29 75.09,-111.52 53.53 05/27/2024 19:22:23 75.11,-111.61 53.55 3.11 6
109 05/27/2024 20:11:51 -75.14, 56.02 126.43 05/27/2024 20:11:45 -75.15, 56.14 126.42 3.71 6
110 05/27/2024 21:01:14 75.14,-136.34 53.57 05/27/2024 21:01:05 75.12,-136.25 53.55 3.35 9
111 05/27/2024 21:50:35 -75.14, 31.34 126.44 05/27/2024 21:50:28 -75.11, 31.37 126.47 3.30 7
112 05/27/2024 22:39:58 75.14,-161.02 53.56 05/27/2024 22:39:47 75.13,-160.90 53.55 3.54 11
113 05/27/2024 23:29:19 -75.14, 6.66 126.45 05/27/2024 23:29:10 -75.12, 6.72 126.47 2.55 9
114 05/28/2024 00:18:41 75.09, 174.44 53.50 05/28/2024 00:18:30 75.09, 174.32 53.50 3.28 11
115 05/28/2024 01:08:03 -75.14, -18.02 126.47 05/28/2024 01:07:52 -75.13, -17.93 126.47 2.82 11
116 05/28/2024 01:57:25 75.09, 149.75 53.49 05/28/2024 01:57:12 75.11, 149.67 53.50 2.79 13
117 05/28/2024 02:46:47 -75.14, -42.70 126.48 05/28/2024 02:46:34 -75.14, -42.57 126.47 3.88 13
118 05/28/2024 03:36:09 75.09, 125.07 53.48 05/28/2024 03:35:54 75.12, 125.03 53.50 3.19 15
119 05/28/2024 04:25:30 -75.09, -67.25 126.54 05/28/2024 04:25:17 -75.11, -67.35 126.52 3.54 13
120 05/28/2024 05:14:54 75.14, 100.25 53.52 05/28/2024 05:14:36 75.13, 100.38 53.50 3.88 18
121 05/28/2024 06:04:15 -75.14, -92.07 126.50 05/28/2024 06:03:59 -75.12, -92.00 126.52 2.95 16
122 05/28/2024 06:53:37 75.09, 75.71 53.46 05/28/2024 06:53:19 75.09, 75.60 53.45 3.03 18
123 05/28/2024 07:42:59 -75.14,-116.75 126.51 05/28/2024 07:42:41 -75.13,-116.64 126.52 3.17 18
124 05/28/2024 08:32:21 75.09, 51.03 53.45 05/28/2024 08:32:01 75.10, 50.96 53.46 2.29 20
125 05/28/2024 09:21:42 -75.09,-141.30 126.57 05/28/2024 09:21:24 -75.09,-141.42 126.57 3.57 18
126 05/28/2024 10:11:05 75.09, 26.34 53.43 05/28/2024 10:10:43 75.11, 26.31 53.46 2.55 22
127 05/28/2024 11:00:26 -75.09,-165.98 126.58 05/28/2024 11:00:06 -75.10,-166.07 126.57 3.01 20
128 05/28/2024 11:49:49 75.09, 1.66 53.42 05/28/2024 11:49:25 75.12, 1.66 53.46 3.57 24
129 05/28/2024 12:39:10 -75.09, 169.34 126.59 05/28/2024 12:38:48 -75.11, 169.29 126.56 3.24 22
130 05/28/2024 13:28:33 75.09, -23.02 53.41 05/28/2024 13:28:08 75.09, -23.12 53.41 2.86 25
131 05/28/2024 14:17:55 -75.14, 144.52 126.55 05/28/2024 14:17:30 -75.12, 144.64 126.56 3.70 25
132 05/28/2024 15:07:17 75.09, -47.71 53.40 05/28/2024 15:06:50 75.10, -47.77 53.41 1.72 27
133 05/28/2024 15:56:38 -75.09, 119.97 126.61 05/28/2024 15:56:13 -75.08, 119.86 126.61 3.21 25
134 05/28/2024 16:46:01 75.09, -72.39 53.39 05/28/2024 16:45:32 75.11, -72.41 53.41 1.64 29
135 05/28/2024 17:35:22 -75.09, 95.29 126.62 05/28/2024 17:34:55 -75.10, 95.21 126.61 2.33 27
136 05/28/2024 18:24:45 75.10, -97.07 53.38 05/28/2024 18:24:14 75.12, -97.06 53.41 2.69 31
137 05/28/2024 19:14:06 -75.09, 70.60 126.63 05/28/2024 19:13:37 -75.11, 70.56 126.61 2.35 29
138 05/28/2024 20:03:29 75.10,-121.76 53.37 05/28/2024 20:02:57 75.08,-121.84 53.36 2.99 32
139 05/28/2024 20:52:50 -75.09, 45.92 126.64 05/28/2024 20:52:19 -75.12, 45.92 126.61 3.23 31
140 05/28/2024 21:42:13 75.10,-146.44 53.36 05/28/2024 21:41:39 75.09,-146.49 53.36 1.49 34
141 05/28/2024 22:31:34 -75.09, 21.24 126.65 05/28/2024 22:31:02 -75.08, 21.14 126.66 3.04 32
142 05/28/2024 23:20:57 75.10,-171.13 53.36 05/28/2024 23:20:21 75.10,-171.14 53.36 0.48 36
143 05/29/2024 00:10:18 -75.09, -3.45 126.66 05/29/2024 00:09:44 -75.09, -3.51 126.66 1.72 34
144 05/29/2024 00:59:41 75.10, 164.19 53.35 05/29/2024 00:59:03 75.11, 164.22 53.36 1.70 38
145 05/29/2024 01:49:02 -75.09, -28.13 126.67 05/29/2024 01:48:26 -75.10, -28.16 126.66 1.20 36
146 05/29/2024 02:38:25 75.10, 139.50 53.34 05/29/2024 02:37:45 75.12, 139.57 53.36 3.19 40
147 05/29/2024 03:27:46 -75.09, -52.82 126.68 05/29/2024 03:27:08 -75.11, -52.81 126.66 2.15 38
148 05/29/2024 04:17:09 75.10, 114.82 53.33 05/29/2024 04:16:28 75.08, 114.79 53.31 2.18 41
149 05/29/2024 05:06:30 -75.10, -77.50 126.69 05/29/2024 05:05:51 -75.07, -77.58 126.71 3.34 39
150 05/29/2024 05:55:53 75.10, 90.13 53.32 05/29/2024 05:55:10 75.09, 90.14 53.31 0.97 43
151 05/29/2024 06:45:14 -75.10,-102.19 126.70 05/29/2024 06:44:33 -75.08,-102.23 126.71 1.83 41
152 05/29/2024 07:34:37 75.10, 65.44 53.31 05/29/2024 07:33:52 75.11, 65.49 53.31 1.28 45
153 05/29/2024 08:23:58 -75.10,-126.88 126.71 05/29/2024 08:23:15 -75.10,-126.88 126.71 0.34 43
154 05/29/2024 09:13:21 75.11, 40.76 53.30 05/29/2024 09:12:34 75.12, 40.84 53.31 2.61 47
155 05/29/2024 10:02:42 -75.10,-151.56 126.71 05/29/2024 10:01:57 -75.11,-151.53 126.71 1.19 45
156 05/29/2024 10:52:05 75.11, 16.07 53.29 05/29/2024 10:51:17 75.08, 16.06 53.26 3.56 48
157 05/29/2024 11:41:26 -75.10,-176.25 126.72 05/29/2024 11:40:39 -75.12,-176.18 126.71 2.68 47
158 05/29/2024 12:30:49 75.11, -8.61 53.28 05/29/2024 12:29:59 75.09, -8.59 53.26 2.65 50
159 05/29/2024 13:20:09 -75.10, 159.06 126.73 05/29/2024 13:19:21 -75.08, 159.04 126.76 2.94 48
160 05/29/2024 14:09:32 75.11, -33.30 53.28 05/29/2024 14:08:40 75.10, -33.24 53.26 2.41 52
161 05/29/2024 14:58:53 -75.11, 134.38 126.74 05/29/2024 14:58:03 -75.09, 134.39 126.76 1.92 50
162 05/29/2024 15:48:16 75.11, -57.99 53.27 05/29/2024 15:47:22 75.11, -57.89 53.26 2.98 54
163 05/29/2024 16:37:37 -75.11, 109.69 126.75 05/29/2024 16:36:45 -75.10, 109.74 126.76 1.77 52
164 05/29/2024 17:26:59 75.07, -82.54 53.21 05/29/2024 17:26:05 75.07, -82.67 53.21 3.66 54
165 05/29/2024 18:16:21 -75.11, 85.00 126.76 05/29/2024 18:15:27 -75.11, 85.10 126.76 2.63 54
166 05/29/2024 19:05:43 75.07,-107.23 53.20 05/29/2024 19:04:47 75.08,-107.32 53.21 2.81 56
167 05/29/2024 19:55:05 -75.11, 60.32 126.76 05/29/2024 19:54:09 -75.12, 60.45 126.75 3.87 56
168 05/29/2024 20:44:27 75.07,-131.92 53.19 05/29/2024 20:43:29 75.09,-131.97 53.21 2.54 58
169 05/29/2024 21:33:48 -75.06, 35.76 126.82 05/29/2024 21:32:52 -75.08, 35.67 126.80 3.35 56
170 05/29/2024 22:23:11 75.07,-156.61 53.19 05/29/2024 22:22:11 75.10,-156.62 53.21 3.01 60
171 05/29/2024 23:12:32 -75.07, 11.07 126.83 05/29/2024 23:11:34 -75.09, 11.02 126.80 3.25 58
172 05/30/2024 00:01:55 75.08, 178.71 53.18 05/30/2024 00:00:54 75.06, 178.60 53.16 3.50 61
173 05/30/2024 00:51:16 -75.07, -13.61 126.84 05/30/2024 00:50:16 -75.10, -13.63 126.80 3.72 60
174 05/30/2024 01:40:39 75.08, 154.02 53.17 05/30/2024 01:39:36 75.07, 153.95 53.16 2.11 63
175 05/30/2024 02:30:00 -75.07, -38.30 126.84 05/30/2024 02:28:59 -75.06, -38.41 126.85 3.38 61
176 05/30/2024 03:19:23 75.08, 129.33 53.16 05/30/2024 03:18:18 75.08, 129.30 53.16 0.77 65
177 05/30/2024 04:08:44 -75.07, -62.99 126.85 05/30/2024 04:07:41 -75.07, -63.06 126.85 2.09 63
178 05/30/2024 04:58:07 75.08, 104.64 53.16 05/30/2024 04:57:00 75.09, 104.65 53.16 0.83 67
179 05/30/2024 05:47:28 -75.08, -87.68 126.86 05/30/2024 05:46:23 -75.08, -87.71 126.85 1.15 65
180 05/30/2024 06:36:51 75.09, 79.95 53.15 05/30/2024 06:35:42 75.10, 80.00 53.16 2.16 69
181 05/30/2024 07:26:12 -75.08,-112.37 126.87 05/30/2024 07:25:05 -75.09,-112.36 126.85 1.49 67
182 05/30/2024 08:15:35 75.09, 55.26 53.14 05/30/2024 08:14:25 75.06, 55.22 53.11 3.49 70
183 05/30/2024 09:04:56 -75.08,-137.06 126.87 05/30/2024 09:03:47 -75.10,-137.01 126.85 2.65 69
184 05/30/2024 09:54:19 75.09, 30.57 53.14 05/30/2024 09:53:07 75.07, 30.57 53.11 2.51 72
185 05/30/2024 10:43:40 -75.09,-161.75 126.88 05/30/2024 10:42:30 -75.06,-161.79 126.90 2.85 70
186 05/30/2024 11:33:02 75.05, 6.01 53.08 05/30/2024 11:31:50 75.03, 5.79 53.06 6.79 72
187 05/30/2024 12:22:24 -75.09, 173.56 126.89 05/30/2024 12:21:12 -75.07, 173.55 126.90 1.75 72
188 05/30/2024 13:11:45 75.00, -18.54 53.02 05/30/2024 13:10:33 74.99, -18.99 53.01 13.11 72
189 05/30/2024 14:01:07 -75.04, 149.00 126.94 05/30/2024 13:59:55 -75.03, 148.77 126.95 6.72 72
190 05/30/2024 14:50:27 74.90, -42.96 52.91 05/30/2024 14:49:17 74.90, -43.90 52.91 27.24 70
191 05/30/2024 15:39:50 -74.99, 124.45 127.00 05/30/2024 15:38:38 -74.99, 123.99 127.00 13.12 72
192 05/30/2024 16:29:10 74.85, -67.52 52.86 05/30/2024 16:28:00 74.85, -68.68 52.86 33.74 70
193 05/30/2024 17:18:33 -74.95, 99.89 127.06 05/30/2024 17:17:21 -74.95, 99.21 127.05 19.58 72
194 05/30/2024 18:07:53 74.81, -92.08 52.80 05/30/2024 18:06:44 74.76, -93.59 52.76 44.30 69
195 05/30/2024 18:57:15 -74.85, 75.46 127.16 05/30/2024 18:56:05 -74.86, 74.31 127.15 33.68 70
196 05/30/2024 19:46:35 74.71,-116.51 52.69 05/30/2024 19:45:27 74.72,-118.37 52.71 54.42 68
197 05/30/2024 20:35:58 -74.80, 50.90 127.22 05/30/2024 20:34:48 -74.82, 49.53 127.20 40.16 70
198 05/30/2024 21:25:18 74.66,-141.07 52.64 05/30/2024 21:24:11 74.63,-143.27 52.61 64.80 67
199 05/30/2024 22:14:40 -74.71, 26.47 127.33 05/30/2024 22:13:32 -74.73, 24.62 127.30 54.26 68
200 05/30/2024 23:04:00 74.56,-165.51 52.53 05/30/2024 23:02:54 74.59,-168.05 52.56 75.11 66
201 05/30/2024 23:53:23 -74.66, 1.91 127.38 05/30/2024 23:52:16 -74.63, -0.28 127.41 64.51 67
202 05/31/2024 00:42:43 74.52, 169.93 52.47 05/31/2024 00:41:38 74.49, 167.05 52.46 85.38 65
203 05/31/2024 01:32:06 -74.61, -22.65 127.44 05/31/2024 01:30:59 -74.59, -25.05 127.46 70.93 67
204 05/31/2024 02:21:25 74.42, 145.49 52.37 05/31/2024 02:20:21 74.45, 142.28 52.40 95.78 64
205 05/31/2024 03:10:48 -74.52, -47.09 127.55 05/31/2024 03:09:43 -74.50, -49.95 127.56 84.99 65
206 05/31/2024 04:49:31 -74.47, -71.66 127.60 05/31/2024 04:48:26 -74.46, -74.73 127.61 91.43 65



Historial Predications of SNOs between AQUA and TERRA
